{"data":{"norad_id":65986,"epoch":"2026-05-21T18:46:40.117728Z","epoch_age_seconds":363712,"freshness":"STALE","line1":"1 65986U 25230N   26141.78240877  .00000062  00000+0  49105-4 0  9993","line2":"2 65986  81.3024 236.7175 0000944 126.6852 233.4389 13.78997230 30129","mean_motion":13.7899723,"eccentricity":9.44e-5,"inclination_deg":81.3024,"raan_deg":236.7175,"arg_perigee_deg":126.6852,"mean_anomaly_deg":233.4389,"bstar":4.9105e-5,"rev_number":3012,"period_min":104.42370504254,"perigee_km":966.75215624381,"apogee_km":968.13900223477,"semimajor_km":7345.5825792393,"source":"CELESTRAK","updated_at":"2026-05-25T13:38:05.879868Z"}}